Weather History for KBLH - November, 2012

Change the Weather History Date:

Wednesday, November 21, 2012

  Actual Average (KNYL) Record (KNYL)
Temperature  
Mean Temperature 62 °F 63 °F  
Max Temperature 77 °F 75 °F 90 °F (1950)
Min Temperature 46 °F 52 °F 34 °F (1907)
Degree Days  
Heating Degree Days 4 3  
Month to date heating degree days 28  
Since 1 July heating degree days 30  
Cooling Degree Days 0 1  
Month to date cooling degree days 80  
Year to date cooling degree days 4642  
Growing Degree Days 12 (Base 50)    
Moisture  
Dew Point 35 °F    
Average Humidity 39    
Maximum Humidity 52    
Minimum Humidity 23    
Precipitation  
Precipitation 0.00 in 0.00 in 0.33 in (2013)
Month to date precipitation 0.12  
Year to date precipitation 2.95  
Sea Level Pressure  
Sea Level Pressure 29.99 in    
Wind  
Wind Speed 3 mph (NNW)    
Max Wind Speed 7 mph    
Max Gust Speed -    
Visibility 10 miles    
Events      
T = Trace of Precipitation, MM = Missing Value Source: NWS Daily Summary

Daily Weather History Graph

Daily Weather History Graph

Search for Another Location

Airport or City:

Trip Planner

Search our weather history database for the weather conditions in past years. The results will help you decide how hot, cold, wet, or windy it might be!

Date:

Astronomy

Nov. 21, 2012 Rise Set
Actual Time 6:16 AM PST 4:32 PM PST
Civil Twilight 5:49 AM PST 4:59 PM PST
Nautical Twilight 5:19 AM PST 5:29 PM PST
Astronomical Twilight 4:49 AM PST 5:59 PM PST
Moon 12:35 PM PST (11/21) No Moon Set
Length of Visible Light 11h 09m
Length of Day
10h 16m
Waxing Gibbous, 63% of the Moon is Illuminated
Nov 21
Waxing Gibbous
Nov 28
Full
Dec 6
Last Quarter
Dec 13
New
Dec 19
First Quarter

Hourly Weather History & Observations

Time (PST) Temp. Dew Point Humidity Pressure Visibility Wind Dir Wind Speed Gust Speed Precip Events Conditions
12:52 AM 53.1 °F 32.0 °F 45% 29.99 in 10.0 mi WNW 3.5 mph - N/A   Clear
1:52 AM 51.1 °F 30.9 °F 46% 29.99 in 10.0 mi NNW 4.6 mph - N/A   Clear
2:52 AM 51.1 °F 32.0 °F 48% 29.99 in 10.0 mi Calm Calm - N/A   Clear
3:52 AM 46.9 °F 30.0 °F 52% 29.99 in 10.0 mi North 4.6 mph - N/A   Clear
4:52 AM 48.0 °F 30.0 °F 50% 30.00 in 10.0 mi SW 3.5 mph - N/A   Clear
5:52 AM 50.0 °F 32.0 °F 50% 30.01 in 10.0 mi SW 4.6 mph - N/A   Clear
6:52 AM 48.0 °F 30.9 °F 52% 30.04 in 10.0 mi Calm Calm - N/A   Clear
8:52 AM 59.0 °F 35.1 °F 41% 30.06 in 10.0 mi Calm Calm - N/A   Clear
9:52 AM 64.0 °F 36.0 °F 35% 30.06 in 10.0 mi Calm Calm - N/A   Clear
10:52 AM 68.0 °F 39.0 °F 35% 30.03 in 10.0 mi Calm Calm - N/A   Clear
11:52 AM 72.0 °F 37.9 °F 29% 29.99 in 10.0 mi Calm Calm - N/A   Clear
12:52 PM 73.9 °F 36.0 °F 25% 29.97 in 10.0 mi Calm Calm - N/A   Clear
1:52 PM 77.0 °F 36.0 °F 23% 29.96 in 10.0 mi Calm Calm - N/A   Clear
2:52 PM 77.0 °F 36.0 °F 23% 29.95 in 10.0 mi Calm Calm - N/A   Clear
3:52 PM 75.9 °F 39.0 °F 26% 29.95 in 10.0 mi ESE 3.5 mph - N/A   Clear
4:52 PM 72.0 °F 39.9 °F 31% 29.94 in 10.0 mi SSE 4.6 mph - N/A   Clear
5:52 PM 66.9 °F 37.9 °F 34% 29.95 in 10.0 mi Calm Calm - N/A   Clear
6:52 PM 64.9 °F 37.9 °F 37% 29.95 in 10.0 mi Calm Calm - N/A   Clear
7:52 PM 60.1 °F 35.1 °F 39% 29.96 in 10.0 mi NNW 6.9 mph - N/A   Clear
8:52 PM 59.0 °F 34.0 °F 39% 29.97 in 10.0 mi NW 5.8 mph - N/A   Clear
9:52 PM 55.9 °F 34.0 °F 44% 29.97 in 10.0 mi NNW 4.6 mph - N/A   Clear
10:52 PM 54.0 °F 32.0 °F 43% 29.98 in 10.0 mi North 5.8 mph - N/A   Clear
11:52 PM 52.0 °F 30.9 °F 45% 29.99 in 10.0 mi NE 3.5 mph - N/A   Clear